OPS 4682 DEB, 59150

Orbit data source: Space-Track

OPS 4682 DEB, 59150 is space debris in LEO originally from a launch on Sat, 03 Apr 1965 UTC launched from the Air Force Western Test Range (AFWTR). Debris objects in space refer to the collection of defunct objects orbiting the Earth. Examples of debris include non-operational satellites, rocket bodies, and fragments generated from explosions, collisions, or faulty payload assembly.

Loading next visibility...
Identifier
59150, 1965-027HS
Orbit
LEO
Country
Flag of USUS
Related business
Manufacturer
Unknown
Mission
Spacecraft
Bus & Motor
Unknown
Mass
Unknown
Launch date (UTC)
1965-04-03 (61 years ago)
Launch vehicle
Unknown
Launch site
Air Force Western Test Range (AFWTR)
Object type
Payload
Rocket body
Debris
Shape & HBR
Unknown shape, 0.1 m
Radar Cross Section
Medium (>0.1 m² and <1 m²)

Expand to show TLE details & history
Last TLE update: 4 days ago

TLE from 4 days ago
0 OPS 4682 DEB
1 59150U 65027HS  26260.28388916  .00000759  00000-0  25304-2 0  9998
2 59150  90.2515   6.2841 0029246 118.6564 241.7504 12.98924223515960
Epoch: 2026-09-17T06:48Z
TLE epoch observation values (Epoch: 2026-09-17T06:48:48.023Z)
Latitude
-0°
Longitude
-92.13934°
Altitude
1,279.821 km
Speed
7.211 km/s
True Right ascension
00h 25m 08s
True Declination
0° 00' 00"
Sunlit
Object was in full shadow at epoch
Visualization orbit readout
Latitude
Unknown
Longitude
Unknown
Altitude
Unknown
Speed
Unknown
Apparent Right ascension
Unknown
Apparent Declination
Unknown
Sunlit
N/A
Visualization observer readout
Local Sidereal Time
12:10:23
Azimuth
Unknown
Elevation
Unknown
Doppler factor
Unknown
Orbital elements
Apogee altitude
1,285.782 km
Perigee altitude
1,241.085 km
Semi-major axis
7,641.57 km
Eccentricity
0.00292
Inclination
90.2515°
RAAN
6.2841°
Arg. of periapsis
118.6564°
True anomaly
241.45569°
Mean anomaly
241.7504°
Eccentric anomaly
241.603°
Mean motion
3.24915 °/min
Orbital period
110.8 mins
BSTAR
0.0025304
Loading maneuver chart data...
Computing Atmospheric mass density...
Loading historical data...
Loading historical data...
Loading historical data...
Loading historical data...
Loading historical data...
Loading historical data...
Loading historical data...

Documentation

Showing up to 5 results
|